Regional Weather Roundup
Issued by NWS Midland/Odessa, TX

Skip options and go directly to product.
Home | Oldest Version | Previous Version | Current Version | All | Graphics & Text | Save Text | Print | Product List | Glossary On

Skip product version selection by date and time.   
202
ASUS44 KMAF 241910
RWRMAF
MIDLAND AREA WEATHER ROUNDUP
NATIONAL WEATHER SERVICE MIDLAND TX
100 PM CST TUE JAN 24 2017

...IN SOUTHWEST TEXAS AND SOUTHEAST NEW MEXICO...

CITY           SKY/WX    TMP DP  RH WIND       PRES   REMARKS
ALPINE         SUNNY     75  22  13 SW23G33   29.80F
ANDREWS        FAIR      65  32  28 W18G38    29.70F
ARTESIA        SUNNY     59  25  27 W40G52    29.72F
BIG SPRING     SUNNY     71  29  21 W21G26    29.70F
CARLSBAD       LGT RAIN  60  29  30 W35G44    29.72F
DRYDEN           N/A     80  34  19 S9        29.65F
FORT STOCKTON  SUNNY     82  23  11 W17G28    29.70F
GUAD PASS      SUNNY     50  29  44 W44G56    29.75F
HOBBS          SUNNY     59  27  29 SW32G45   29.72F
MARFA          SUNNY     72  23  16 SW28G46   29.79F
MIDLAND AIRPK  SUNNY     72  27  19 W21G28    29.69F
MIDLAND INTL   SUNNY     72  27  18 W25G33    29.69F
ODESSA         SUNNY     70  27  20 W23G33    29.70F
PECOS          SUNNY     69  31  25 W18G24    29.71F
PRESIDIO       FAIR      81  24  12 SW26G35   29.72F
SEMINOLE       SUNNY     63  30  29 W25G39    29.72F
SNYDER         SUNNY     69  33  27 W20G25    29.67F
WINK           SUNNY     67  31  26 W28G35    29.70F
$$
...OTHER STATIONS IN TEXAS...

CITY           SKY/WX    TMP DP  RH WIND       PRES   REMARKS
ABILENE        SUNNY     77  36  22 SW12      29.64F
AMARILLO       SUNNY     58  24  27 W28G41    29.57F
AUSTIN         MOSUNNY   78  55  44 S21       29.71F
BROWNSVILLE    SUNNY     83  66  56 S28G37    29.73F
CORPUS CHRISTI MOSUNNY   84  64  50 S21G28    29.70F
DALLAS FTW     PTSUNNY   78  45  30 S13       29.61F
DEL RIO        SUNNY     76  41  28 SE10      29.66F
EL PASO        MOSUNNY   51  27  39 W21G26    29.84F
HOUSTON INT    MOSUNNY   78  58  49 S16       29.78F
LUBBOCK        MOSUNNY   65  29  25 W32G46    29.63F
SAN ANGELO     MOSUNNY   84  31  14 SW28G36   29.63F
SAN ANTONIO    PTSUNNY   76  52  43 S12       29.73F
WACO           SUNNY     75  55  49 S18       29.66F
WICHITA FALLS  NOT AVBL
$$
...OTHER LOCATIONS IN NEW MEXICO...

CITY           SKY/WX    TMP DP  RH WIND       PRES   REMARKS
ALAMAGORDO     SUNNY     50  19  29 W21G26    29.85F
ALBUQUERQUE    MOSUNNY   39  15  37 W30G44    29.76S WCI  27
CANNON AFB     MOSUNNY   53  26  35 W26G43    29.64F
CLOVIS         MOSUNNY   52  27  37 W28G40    29.64F
HOLLOMAN AFB   SUNNY     50  22  33 SW23G31   29.86F
ROSWELL        SUNNY     59  19  21 W21G33    29.70F
RUIDOSO        MOSUNNY   39  14  35 W24G37    29.76F WCI  28
SANTA FE       MOSUNNY   34  20  56 W23G30    29.70S WCI  22
TRUTH OR CONSE SUNNY     47  10  22 W17G31    29.80F
TUCUMCARI      SUNNY     53  10  18 W39G54    29.61F
$$